TimeCDT,TemperatureF,Dew PointF,Humidity,Sea Level PressureIn,VisibilityMPH,Wind Direction,Wind SpeedMPH,Gust SpeedMPH,PrecipitationIn,Events,Conditions,WindDirDegrees,DateUTC
12:13 AM,62.6,53.6,72,30.02,10.0,NE,4.6,-,N/A,,Clear,50,2013-06-30 05:13:00
12:34 AM,62.6,51.8,68,30.03,10.0,NE,4.6,-,N/A,,Clear,50,2013-06-30 05:34:00
12:53 AM,62.6,51.8,68,30.04,10.0,ENE,3.5,-,N/A,,Clear,60,2013-06-30 05:53:00
1:13 AM,62.6,53.6,72,30.04,10.0,ENE,3.5,-,N/A,,Clear,70,2013-06-30 06:13:00
1:33 AM,60.8,51.8,72,30.05,10.0,NE,4.6,-,N/A,,Clear,50,2013-06-30 06:33:00
1:53 AM,60.8,51.8,72,30.06,10.0,NE,3.5,-,N/A,,Clear,50,2013-06-30 06:53:00
2:14 AM,59.0,51.8,77,30.06,10.0,NE,3.5,-,N/A,,Clear,50,2013-06-30 07:14:00
2:33 AM,57.2,51.8,82,30.07,10.0,Calm,Calm,-,N/A,,Clear,0,2013-06-30 07:33:00
2:53 AM,57.2,51.8,82,30.07,10.0,Calm,Calm,-,N/A,,Clear,0,2013-06-30 07:53:00
3:13 AM,59.0,51.8,77,30.07,10.0,Calm,Calm,-,N/A,,Clear,0,2013-06-30 08:13:00
3:33 AM,59.0,53.6,82,30.07,10.0,Calm,Calm,-,N/A,,Clear,0,2013-06-30 08:33:00
3:53 AM,57.2,53.6,88,30.07,10.0,Calm,Calm,-,N/A,,Clear,0,2013-06-30 08:53:00
4:13 AM,60.8,53.6,77,30.07,10.0,Calm,Calm,-,N/A,,Clear,0,2013-06-30 09:13:00
4:33 AM,59.0,53.6,82,30.07,10.0,Calm,Calm,-,N/A,,Clear,0,2013-06-30 09:33:00
4:53 AM,59.0,53.6,82,30.08,10.0,Calm,Calm,-,N/A,,Clear,0,2013-06-30 09:53:00
5:13 AM,59.0,53.6,82,30.08,10.0,Calm,Calm,-,N/A,,Clear,0,2013-06-30 10:13:00
5:33 AM,57.2,53.6,88,30.09,10.0,Calm,Calm,-,N/A,,Clear,0,2013-06-30 10:33:00
5:53 AM,57.2,53.6,88,30.09,10.0,Calm,Calm,-,N/A,,Clear,0,2013-06-30 10:53:00
6:13 AM,55.4,53.6,94,30.10,10.0,Calm,Calm,-,N/A,,Clear,0,2013-06-30 11:13:00
6:33 AM,55.4,51.8,88,30.11,7.0,Calm,Calm,-,N/A,,Clear,0,2013-06-30 11:33:00
6:53 AM,57.2,53.6,88,30.12,7.0,Calm,Calm,-,N/A,,Clear,0,2013-06-30 11:53:00
7:13 AM,60.8,55.4,82,30.12,7.0,North,4.6,-,N/A,,Clear,10,2013-06-30 12:13:00
7:33 AM,62.6,55.4,77,30.12,7.0,NE,3.5,-,N/A,,Clear,40,2013-06-30 12:33:00
7:53 AM,64.4,57.2,77,30.12,5.0,Calm,Calm,-,N/A,,Haze,0,2013-06-30 12:53:00
8:13 AM,66.2,57.2,73,30.12,7.0,NE,3.5,-,N/A,,Clear,40,2013-06-30 13:13:00
8:33 AM,68.0,57.2,68,30.13,10.0,NE,3.5,-,N/A,,Clear,40,2013-06-30 13:33:00
8:53 AM,69.8,55.4,60,30.13,10.0,North,3.5,-,N/A,,Clear,360,2013-06-30 13:53:00
9:13 AM,71.6,53.6,53,30.13,10.0,ENE,4.6,-,N/A,,Clear,60,2013-06-30 14:13:00
9:34 AM,71.6,51.8,50,30.13,10.0,ENE,3.5,-,N/A,,Clear,60,2013-06-30 14:34:00
9:53 AM,73.4,51.8,47,30.13,10.0,NNE,4.6,-,N/A,,Clear,30,2013-06-30 14:53:00
10:13 AM,73.4,51.8,47,30.13,10.0,NNE,5.8,-,N/A,,Clear,20,2013-06-30 15:13:00
10:33 AM,73.4,50.0,44,30.13,10.0,North,5.8,-,N/A,,Clear,10,2013-06-30 15:33:00
10:53 AM,75.2,50.0,41,30.13,10.0,NNE,6.9,-,N/A,,Clear,20,2013-06-30 15:53:00
11:13 AM,75.2,48.2,38,30.14,10.0,NE,3.5,-,N/A,,Clear,40,2013-06-30 16:13:00
11:33 AM,75.2,48.2,38,30.14,10.0,East,3.5,-,N/A,,Scattered Clouds,90,2013-06-30 16:33:00
11:54 AM,77.0,48.2,36,30.14,10.0,North,8.1,-,N/A,,Clear,360,2013-06-30 16:54:00
12:13 PM,77.0,48.2,36,30.15,10.0,NE,3.5,-,N/A,,Clear,50,2013-06-30 17:13:00
12:33 PM,77.0,46.4,34,30.15,10.0,NNE,5.8,-,N/A,,Scattered Clouds,20,2013-06-30 17:33:00
12:53 PM,78.8,44.6,30,30.14,10.0,NE,9.2,-,N/A,,Scattered Clouds,40,2013-06-30 17:53:00
1:13 PM,78.8,42.8,28,30.14,10.0,East,5.8,9.2,N/A,,Clear,80,2013-06-30 18:13:00
1:33 PM,78.8,42.8,28,30.14,10.0,SE,4.6,-,N/A,,Clear,130,2013-06-30 18:33:00
1:53 PM,78.8,41.0,26,30.14,10.0,East,5.8,-,N/A,,Clear,80,2013-06-30 18:53:00
2:15 PM,78.8,42.8,28,30.14,10.0,NE,5.8,-,N/A,,Clear,50,2013-06-30 19:15:00
2:33 PM,80.6,41.0,24,30.14,10.0,NE,6.9,-,N/A,,Clear,40,2013-06-30 19:33:00
2:53 PM,80.6,42.8,26,30.13,10.0,Calm,Calm,-,N/A,,Clear,0,2013-06-30 19:53:00
3:13 PM,80.6,42.8,26,30.13,10.0,ENE,5.8,-,N/A,,Clear,70,2013-06-30 20:13:00
3:33 PM,80.6,42.8,26,30.13,10.0,East,6.9,-,N/A,,Clear,80,2013-06-30 20:33:00
3:53 PM,80.6,42.8,26,30.13,10.0,East,8.1,-,N/A,,Clear,80,2013-06-30 20:53:00
4:13 PM,82.4,41.0,23,30.13,10.0,NNE,4.6,-,N/A,,Clear,20,2013-06-30 21:13:00
4:33 PM,82.4,41.0,23,30.12,10.0,NNE,9.2,-,N/A,,Clear,30,2013-06-30 21:33:00
4:53 PM,82.4,42.8,25,30.12,10.0,NNE,5.8,-,N/A,,Clear,30,2013-06-30 21:53:00
5:14 PM,82.4,42.8,25,30.12,10.0,NE,8.1,-,N/A,,Clear,50,2013-06-30 22:14:00
5:33 PM,82.4,42.8,25,30.12,10.0,NNE,4.6,-,N/A,,Clear,20,2013-06-30 22:33:00
5:53 PM,82.4,42.8,25,30.12,10.0,NE,8.1,-,N/A,,Clear,40,2013-06-30 22:53:00
6:14 PM,82.4,42.8,25,30.12,10.0,NE,6.9,-,N/A,,Clear,50,2013-06-30 23:14:00
6:33 PM,82.4,42.8,25,30.12,10.0,NNE,9.2,-,N/A,,Clear,30,2013-06-30 23:33:00
6:53 PM,80.6,44.6,28,30.12,10.0,NE,8.1,-,N/A,,Clear,50,2013-06-30 23:53:00
7:13 PM,80.6,44.6,28,30.12,10.0,NE,5.8,-,N/A,,Clear,50,2013-07-01 00:13:00
7:33 PM,80.6,46.4,30,30.12,10.0,NE,4.6,-,N/A,,Clear,40,2013-07-01 00:33:00
7:53 PM,78.8,48.2,34,30.12,10.0,Calm,Calm,-,N/A,,Clear,0,2013-07-01 00:53:00
8:13 PM,78.8,51.8,39,30.12,10.0,NE,3.5,-,N/A,,Clear,50,2013-07-01 01:13:00
8:33 PM,75.2,53.6,47,30.12,7.0,Calm,Calm,-,N/A,,Clear,0,2013-07-01 01:33:00
8:53 PM,73.4,55.4,53,30.13,7.0,Calm,Calm,-,N/A,,Clear,0,2013-07-01 01:53:00
9:13 PM,71.6,53.6,53,30.13,7.0,Calm,Calm,-,N/A,,Clear,0,2013-07-01 02:13:00
9:33 PM,69.8,53.6,56,30.13,10.0,Calm,Calm,-,N/A,,Clear,0,2013-07-01 02:33:00
9:53 PM,69.8,55.4,60,30.14,10.0,Calm,Calm,-,N/A,,Clear,0,2013-07-01 02:53:00
10:13 PM,66.2,55.4,68,30.14,7.0,Calm,Calm,-,N/A,,Clear,0,2013-07-01 03:13:00
10:33 PM,66.2,55.4,68,30.15,10.0,Calm,Calm,-,N/A,,Clear,0,2013-07-01 03:33:00
10:53 PM,66.2,55.4,68,30.15,10.0,Calm,Calm,-,N/A,,Clear,0,2013-07-01 03:53:00
11:13 PM,66.2,55.4,68,30.15,10.0,Calm,Calm,-,N/A,,Clear,0,2013-07-01 04:13:00
11:33 PM,66.2,53.6,64,30.16,10.0,Calm,Calm,-,N/A,,Clear,0,2013-07-01 04:33:00
11:53 PM,62.6,55.4,77,30.16,10.0,Calm,Calm,-,N/A,,Clear,0,2013-07-01 04:53:00